JST789 YBSU-YSSY

Flight info

Callsign JST789
Flight time 1h 18m
Altitude 38000
Route SU Q35 SANEG H91 IGDAM H652 TESAT
Aircraft A320/M-SDE3FGHIRWY/LB1

Departure

Time 2026-05-06 10:31
Airport Sunshine Coast Airport (YBSU)

Arrival

Time 2026-05-06 11:50
Airport Sydney Kingsford Smith International Airport (YSSY)
Time Latitude Longitude Altitude Speed Heading
2026-05-06 09:53 -26.60444 153.08882 23 ft 0 kts 232°
2026-05-06 10:18 -26.60436 153.08894 23 ft 4 kts 238°
2026-05-06 10:18 -26.60425 153.08920 25 ft 4 kts 262°
2026-05-06 10:18 -26.60428 153.08948 23 ft 4 kts 313°
2026-05-06 10:18 -26.60432 153.08953 28 ft 0 kts 322°
2026-05-06 10:21 -26.60432 153.08952 28 ft 1 kts 322°
2026-05-06 10:21 -26.60419 153.08942 23 ft 5 kts 322°
2026-05-06 10:21 -26.60373 153.08909 24 ft 10 kts 352°
2026-05-06 10:22 -26.60300 153.08916 20 ft 13 kts 328°
2026-05-06 10:22 -26.60222 153.08849 20 ft 15 kts 322°
2026-05-06 10:22 -26.60137 153.08777 22 ft 16 kts 322°
2026-05-06 10:22 -26.60043 153.08695 22 ft 19 kts 322°
2026-05-06 10:23 -26.59937 153.08606 25 ft 20 kts 322°
2026-05-06 10:23 -26.59822 153.08506 23 ft 23 kts 322°
2026-05-06 10:23 -26.59688 153.08391 22 ft 26 kts 322°
2026-05-06 10:23 -26.59545 153.08269 19 ft 26 kts 322°
2026-05-06 10:24 -26.59454 153.08193 19 ft 10 kts 325°
2026-05-06 10:24 -26.59397 153.08204 20 ft 6 kts 45°
2026-05-06 10:24 -26.59392 153.08210 23 ft 0 kts 50°
2026-05-06 10:27 -26.59392 153.08211 23 ft 1 kts 50°
2026-05-06 10:27 -26.59374 153.08238 22 ft 8 kts 54°
2026-05-06 10:28 -26.59316 153.08283 20 ft 15 kts
2026-05-06 10:28 -26.59211 153.08217 21 ft 20 kts 322°
2026-05-06 10:28 -26.59096 153.08119 21 ft 21 kts 322°
2026-05-06 10:28 -26.58972 153.08015 23 ft 24 kts 323°
2026-05-06 10:29 -26.58835 153.07898 25 ft 26 kts 322°
2026-05-06 10:29 -26.58687 153.07774 23 ft 28 kts 323°
2026-05-06 10:29 -26.58527 153.07639 25 ft 25 kts 323°
2026-05-06 10:29 -26.58426 153.07498 20 ft 24 kts 286°
2026-05-06 10:30 -26.58348 153.07435 22 ft 13 kts 41°
2026-05-06 10:30 -26.58374 153.07505 21 ft 13 kts 142°
2026-05-06 10:30 -26.58515 153.07625 23 ft 54 kts 143°
2026-05-06 10:30 -26.58997 153.08033 24 ft 117 kts 142°
2026-05-06 10:31 -26.59776 153.08698 31 ft 163 kts 142°
2026-05-06 10:31 -26.60698 153.09493 519 ft 169 kts 145°
2026-05-06 10:31 -26.61615 153.10280 1212 ft 170 kts 143°
2026-05-06 10:31 -26.62556 153.11077 1915 ft 171 kts 142°
2026-05-06 10:32 -26.63549 153.11927 2269 ft 191 kts 142°
2026-05-06 10:32 -26.64616 153.12966 2557 ft 217 kts 132°
2026-05-06 10:32 -26.65668 153.14305 2965 ft 241 kts 131°
2026-05-06 10:32 -26.66799 153.15774 3656 ft 254 kts 131°
2026-05-06 10:33 -26.67961 153.17293 4558 ft 259 kts 131°
2026-05-06 10:33 -26.69142 153.18837 5453 ft 263 kts 131°
2026-05-06 10:33 -26.70334 153.20391 6290 ft 270 kts 131°
2026-05-06 10:33 -26.71570 153.21997 7088 ft 276 kts 131°
2026-05-06 10:34 -26.72851 153.23658 7910 ft 280 kts 131°
2026-05-06 10:34 -26.74121 153.25298 8712 ft 285 kts 131°
2026-05-06 10:34 -26.75428 153.26987 9529 ft 289 kts 132°
2026-05-06 10:34 -26.76758 153.28708 10252 ft 297 kts 132°
2026-05-06 10:35 -26.78164 153.30526 10497 ft 321 kts 131°
2026-05-06 10:35 -26.79678 153.32478 10804 ft 339 kts 133°
2026-05-06 10:35 -26.81475 153.34224 11356 ft 347 kts 147°
2026-05-06 10:35 -26.83640 153.35451 11986 ft 351 kts 162°
2026-05-06 10:36 -26.86033 153.36065 12592 ft 356 kts 176°
2026-05-06 10:36 -26.88519 153.36086 13205 ft 360 kts 184°
2026-05-06 10:36 -26.91040 153.36005 13827 ft 366 kts 185°
2026-05-06 10:36 -26.93604 153.35924 14382 ft 371 kts 185°
2026-05-06 10:37 -26.96201 153.35846 14968 ft 375 kts 185°
2026-05-06 10:37 -26.98818 153.35769 15564 ft 378 kts 185°
2026-05-06 10:37 -27.01462 153.35694 16154 ft 382 kts 186°
2026-05-06 10:37 -27.04128 153.35617 16741 ft 385 kts 186°
2026-05-06 10:38 -27.06823 153.35536 17338 ft 389 kts 186°
2026-05-06 10:38 -27.09538 153.35454 17932 ft 393 kts 186°
2026-05-06 10:38 -27.12288 153.35373 18513 ft 397 kts 186°
2026-05-06 10:38 -27.15059 153.35293 19026 ft 400 kts 187°
2026-05-06 10:39 -27.17856 153.35211 19571 ft 404 kts 187°
2026-05-06 10:39 -27.20679 153.35125 20126 ft 407 kts 187°
2026-05-06 10:39 -27.23516 153.35040 20690 ft 410 kts 187°
2026-05-06 10:39 -27.26378 153.34954 21239 ft 412 kts 187°
2026-05-06 10:40 -27.29256 153.34868 21787 ft 415 kts 187°
2026-05-06 10:40 -27.32122 153.34780 22321 ft 418 kts 187°
2026-05-06 10:40 -27.35014 153.34540 22853 ft 415 kts 196°
2026-05-06 10:40 -27.37791 153.33754 23383 ft 409 kts 206°
2026-05-06 10:41 -27.40365 153.32445 23877 ft 403 kts 217°
2026-05-06 10:41 -27.42768 153.30826 24314 ft 404 kts 218°
2026-05-06 10:41 -27.45158 153.29209 24736 ft 406 kts 218°
2026-05-06 10:41 -27.47590 153.27568 25152 ft 409 kts 218°
2026-05-06 10:42 -27.50039 153.25917 25567 ft 412 kts 219°
2026-05-06 10:42 -27.52504 153.24250 25962 ft 415 kts 219°
2026-05-06 10:42 -27.54988 153.22571 26366 ft 417 kts 219°
2026-05-06 10:42 -27.57486 153.20881 26759 ft 420 kts 219°
2026-05-06 10:43 -27.59999 153.19180 27143 ft 423 kts 219°
2026-05-06 10:43 -27.62533 153.17464 27522 ft 426 kts 220°
2026-05-06 10:43 -27.64987 153.15799 27876 ft 429 kts 220°
2026-05-06 10:44 -27.70129 153.12306 28612 ft 434 kts 220°
2026-05-06 10:44 -27.72728 153.10542 28963 ft 437 kts 220°
2026-05-06 10:44 -27.75343 153.08769 29344 ft 440 kts 220°
2026-05-06 10:44 -27.77976 153.06985 29695 ft 443 kts 221°
2026-05-06 10:45 -27.80623 153.05194 30062 ft 446 kts 220°
2026-05-06 10:45 -27.83469 153.03649 30378 ft 461 kts 211°
2026-05-06 10:45 -27.86468 153.02333 30691 ft 464 kts 211°
2026-05-06 10:45 -27.89485 153.01014 31001 ft 466 kts 211°
2026-05-06 10:46 -27.92518 152.99691 31305 ft 468 kts 211°
2026-05-06 10:46 -27.95514 152.98388 31723 ft 467 kts 212°
2026-05-06 10:46 -27.98546 152.97069 32153 ft 466 kts 212°
2026-05-06 10:46 -28.01562 152.95751 32579 ft 465 kts 212°
2026-05-06 10:47 -28.04575 152.94426 32992 ft 464 kts 212°
2026-05-06 10:47 -28.07588 152.93097 33404 ft 464 kts 213°
2026-05-06 10:47 -28.10594 152.91772 33812 ft 464 kts 213°
2026-05-06 10:47 -28.13597 152.90444 34216 ft 463 kts 213°
2026-05-06 10:48 -28.16604 152.89108 34581 ft 463 kts 213°
2026-05-06 10:48 -28.19588 152.87781 34950 ft 461 kts 214°
2026-05-06 10:48 -28.22572 152.86452 35337 ft 459 kts 214°
2026-05-06 10:48 -28.25539 152.85132 35729 ft 457 kts 214°
2026-05-06 10:49 -28.28496 152.83817 36103 ft 456 kts 214°
2026-05-06 10:49 -28.31331 152.82556 36469 ft 454 kts 214°
2026-05-06 10:49 -28.34270 152.81247 36869 ft 451 kts 215°
2026-05-06 10:49 -28.37185 152.79944 37228 ft 449 kts 215°
2026-05-06 10:50 -28.40085 152.78646 37560 ft 447 kts 215°
2026-05-06 10:50 -28.42974 152.77350 37876 ft 446 kts 216°
2026-05-06 10:50 -28.45852 152.76058 38107 ft 445 kts 216°
2026-05-06 10:51 -28.51621 152.73465 38150 ft 446 kts 216°
2026-05-06 10:51 -28.57396 152.70881 38150 ft 446 kts 215°
2026-05-06 10:52 -28.63180 152.68296 38151 ft 447 kts 216°
2026-05-06 10:52 -28.68970 152.65700 38147 ft 447 kts 216°
2026-05-06 10:53 -28.74723 152.63114 38152 ft 447 kts 216°
2026-05-06 10:53 -28.80516 152.60502 38158 ft 448 kts 215°
2026-05-06 10:54 -28.86221 152.57753 38164 ft 437 kts 221°
2026-05-06 10:54 -28.91618 152.54545 38167 ft 437 kts 221°
2026-05-06 10:55 -28.97027 152.51323 38160 ft 438 kts 221°
2026-05-06 10:55 -29.02432 152.48096 38164 ft 439 kts 221°
2026-05-06 10:56 -29.07852 152.44872 38176 ft 439 kts 221°
2026-05-06 10:56 -29.13282 152.41641 38174 ft 440 kts 221°
2026-05-06 10:57 -29.18710 152.38391 38171 ft 440 kts 221°
2026-05-06 10:57 -29.24130 152.35138 38179 ft 440 kts 221°
2026-05-06 10:58 -29.29560 152.31886 38177 ft 440 kts 221°
2026-05-06 10:58 -29.34984 152.28638 38184 ft 440 kts 221°
2026-05-06 10:59 -29.40416 152.25381 38180 ft 440 kts 221°
2026-05-06 10:59 -29.45800 152.22139 38180 ft 440 kts 221°
2026-05-06 11:00 -29.51224 152.18873 38177 ft 440 kts 221°
2026-05-06 11:00 -29.56647 152.15607 38180 ft 440 kts 221°
2026-05-06 11:01 -29.62066 152.12330 38182 ft 441 kts 221°
2026-05-06 11:01 -29.67503 152.09046 38180 ft 441 kts 221°
2026-05-06 11:02 -29.72399 152.06856 38175 ft 467 kts 205°
2026-05-06 11:02 -29.79779 152.04946 38175 ft 468 kts 205°
2026-05-06 11:03 -29.85104 152.03569 38175 ft 468 kts 205°
2026-05-06 11:03 -29.91420 152.01923 38170 ft 468 kts 205°
2026-05-06 11:04 -29.97779 152.00257 38174 ft 469 kts 205°
2026-05-06 11:04 -30.04141 151.98584 38177 ft 468 kts 205°
2026-05-06 11:05 -30.10496 151.96913 38150 ft 467 kts 205°
2026-05-06 11:05 -30.16831 151.95255 38156 ft 466 kts 205°
2026-05-06 11:06 -30.23156 151.93601 38147 ft 465 kts 205°
2026-05-06 11:06 -30.29464 151.91940 38151 ft 464 kts 205°
2026-05-06 11:07 -30.35479 151.89715 38157 ft 447 kts 214°
2026-05-06 11:07 -30.41250 151.87018 38162 ft 447 kts 214°
2026-05-06 11:08 -30.46986 151.84347 38170 ft 447 kts 214°
2026-05-06 11:08 -30.52762 151.81662 38169 ft 447 kts 214°
2026-05-06 11:09 -30.58531 151.78974 38172 ft 446 kts 214°
2026-05-06 11:09 -30.64295 151.76278 38171 ft 446 kts 214°
2026-05-06 11:10 -30.70056 151.73585 38174 ft 446 kts 214°
2026-05-06 11:10 -30.75807 151.70892 38170 ft 446 kts 214°
2026-05-06 11:11 -30.81556 151.68196 38169 ft 445 kts 214°
2026-05-06 11:11 -30.87307 151.65501 38170 ft 445 kts 213°
2026-05-06 11:12 -30.93045 151.62803 38172 ft 445 kts 214°
2026-05-06 11:12 -30.98781 151.60101 38173 ft 445 kts 213°
2026-05-06 11:13 -31.04527 151.57392 38169 ft 445 kts 213°
2026-05-06 11:13 -31.10232 151.54698 38171 ft 445 kts 213°
2026-05-06 11:14 -31.15975 151.51987 38172 ft 445 kts 213°
2026-05-06 11:14 -31.21719 151.49277 38166 ft 445 kts 213°
2026-05-06 11:15 -31.27457 151.46550 38168 ft 445 kts 213°
2026-05-06 11:15 -31.33401 151.44224 38166 ft 454 kts 207°
2026-05-06 11:16 -31.39503 151.42246 38163 ft 456 kts 206°
2026-05-06 11:16 -31.45628 151.40306 38160 ft 456 kts 206°
2026-05-06 11:17 -31.51742 151.38335 38162 ft 456 kts 206°
2026-05-06 11:17 -31.57846 151.36335 38159 ft 456 kts 206°
2026-05-06 11:18 -31.63955 151.34337 38158 ft 456 kts 206°
2026-05-06 11:18 -31.70068 151.32351 38155 ft 456 kts 206°
2026-05-06 11:19 -31.76186 151.30355 38158 ft 457 kts 206°
2026-05-06 11:19 -31.82306 151.28341 38126 ft 457 kts 206°
2026-05-06 11:19 -31.85327 151.27348 37857 ft 456 kts 206°
2026-05-06 11:20 -31.88385 151.26349 37591 ft 456 kts 206°
2026-05-06 11:20 -31.91437 151.25351 37331 ft 456 kts 205°
2026-05-06 11:20 -31.94495 151.24349 37072 ft 456 kts 205°
2026-05-06 11:20 -31.97565 151.23339 36731 ft 457 kts 205°
2026-05-06 11:21 -32.00640 151.22320 35986 ft 461 kts 205°
2026-05-06 11:21 -32.03736 151.21295 35433 ft 460 kts 205°
2026-05-06 11:21 -32.06813 151.20283 34962 ft 457 kts 205°
2026-05-06 11:21 -32.09873 151.19280 34456 ft 456 kts 204°
2026-05-06 11:22 -32.12902 151.18290 34277 ft 446 kts 205°
2026-05-06 11:22 -32.15854 151.17328 34186 ft 434 kts 205°
2026-05-06 11:22 -32.18732 151.16388 34093 ft 427 kts 205°
2026-05-06 11:23 -32.24520 151.14455 33899 ft 435 kts 205°
2026-05-06 11:23 -32.27440 151.13477 33798 ft 436 kts 205°
2026-05-06 11:23 -32.30379 151.12495 33080 ft 442 kts 205°
2026-05-06 11:23 -32.33362 151.11500 32194 ft 448 kts 204°
2026-05-06 11:24 -32.36345 151.10510 31472 ft 451 kts 204°
2026-05-06 11:24 -32.39353 151.09519 30972 ft 447 kts 204°
2026-05-06 11:24 -32.42348 151.08535 30396 ft 446 kts 203°
2026-05-06 11:24 -32.45327 151.07555 29758 ft 444 kts 203°
2026-05-06 11:25 -32.48296 151.06576 29187 ft 440 kts 203°
2026-05-06 11:25 -32.51234 151.05600 28611 ft 436 kts 202°
2026-05-06 11:25 -32.54139 151.04631 28047 ft 433 kts 202°
2026-05-06 11:25 -32.57033 151.03662 27480 ft 430 kts 202°
2026-05-06 11:26 -32.59899 151.02704 26930 ft 427 kts 202°
2026-05-06 11:26 -32.62751 151.01752 26379 ft 424 kts 201°
2026-05-06 11:26 -32.65576 151.00834 25849 ft 423 kts 198°
2026-05-06 11:26 -32.68513 151.00539 25664 ft 427 kts 184°
2026-05-06 11:27 -32.71478 151.00716 25144 ft 426 kts 182°
2026-05-06 11:27 -32.74434 151.00911 24621 ft 425 kts 182°
2026-05-06 11:27 -32.77297 151.01110 24136 ft 423 kts 181°
2026-05-06 11:27 -32.80194 151.01318 23635 ft 421 kts 181°
2026-05-06 11:28 -32.83113 151.01531 23094 ft 419 kts 181°
2026-05-06 11:28 -32.86007 151.01741 22615 ft 415 kts 181°
2026-05-06 11:28 -32.88899 151.01947 22116 ft 412 kts 181°
2026-05-06 11:28 -32.91717 151.02146 21635 ft 410 kts 181°
2026-05-06 11:29 -32.94559 151.02342 21123 ft 408 kts 181°
2026-05-06 11:29 -32.97394 151.02533 20615 ft 407 kts 180°
2026-05-06 11:29 -33.00216 151.02727 20082 ft 405 kts 180°
2026-05-06 11:29 -33.03031 151.02930 19561 ft 404 kts 180°
2026-05-06 11:30 -33.05837 151.03134 19013 ft 403 kts 179°
2026-05-06 11:30 -33.08637 151.03333 18471 ft 402 kts 179°
2026-05-06 11:30 -33.11416 151.03532 17875 ft 394 kts 179°
2026-05-06 11:30 -33.14098 151.03726 17332 ft 377 kts 179°
2026-05-06 11:31 -33.16657 151.03911 16823 ft 361 kts 179°
2026-05-06 11:31 -33.19155 151.04084 16332 ft 359 kts 180°
2026-05-06 11:31 -33.21645 151.04252 15826 ft 358 kts 180°
2026-05-06 11:31 -33.24129 151.04472 15332 ft 358 kts 175°
2026-05-06 11:32 -33.26555 151.04929 14862 ft 357 kts 173°
2026-05-06 11:32 -33.29005 151.05401 14385 ft 356 kts 173°
2026-05-06 11:32 -33.31446 151.05872 13901 ft 355 kts 173°
2026-05-06 11:32 -33.33881 151.06340 13384 ft 353 kts 173°
2026-05-06 11:33 -33.36296 151.06800 12909 ft 350 kts 173°
2026-05-06 11:33 -33.38695 151.07257 12445 ft 348 kts 174°
2026-05-06 11:33 -33.41083 151.07712 11971 ft 346 kts 173°
2026-05-06 11:33 -33.43449 151.08165 11508 ft 344 kts 173°
2026-05-06 11:34 -33.45787 151.08618 11196 ft 334 kts 173°
2026-05-06 11:34 -33.48034 151.09056 10953 ft 322 kts 173°
2026-05-06 11:34 -33.50222 151.09480 10712 ft 316 kts 173°
2026-05-06 11:34 -33.52364 151.09892 10469 ft 309 kts 174°
2026-05-06 11:35 -33.54470 151.10298 10234 ft 304 kts 173°
2026-05-06 11:35 -33.56552 151.10699 9887 ft 303 kts 174°
2026-05-06 11:35 -33.58637 151.11099 9487 ft 303 kts 174°
2026-05-06 11:35 -33.60704 151.11496 9139 ft 300 kts 173°
2026-05-06 11:36 -33.62744 151.11893 8845 ft 292 kts 173°
2026-05-06 11:36 -33.64731 151.12286 8700 ft 294 kts 173°
2026-05-06 11:36 -33.66735 151.12682 8525 ft 293 kts 173°
2026-05-06 11:36 -33.68722 151.13075 8359 ft 293 kts 173°
2026-05-06 11:37 -33.70729 151.13470 8184 ft 292 kts 173°
2026-05-06 11:37 -33.72733 151.13859 8013 ft 291 kts 173°
2026-05-06 11:37 -33.74726 151.14245 7839 ft 290 kts 173°
2026-05-06 11:37 -33.76716 151.14631 7671 ft 289 kts 173°
2026-05-06 11:38 -33.78699 151.15016 7502 ft 288 kts 173°
2026-05-06 11:38 -33.80678 151.15304 7332 ft 285 kts 182°
2026-05-06 11:38 -33.82629 151.15059 7167 ft 280 kts 196°
2026-05-06 11:38 -33.84526 151.14508 7003 ft 280 kts 197°
2026-05-06 11:39 -33.86415 151.13960 6836 ft 279 kts 197°
2026-05-06 11:39 -33.88303 151.13415 6673 ft 279 kts 197°
2026-05-06 11:39 -33.90187 151.12869 6501 ft 278 kts 197°
2026-05-06 11:39 -33.92071 151.12326 6335 ft 277 kts 197°
2026-05-06 11:40 -33.93949 151.11785 6167 ft 277 kts 196°
2026-05-06 11:40 -33.95819 151.11247 6021 ft 276 kts 196°
2026-05-06 11:40 -33.97685 151.10710 5815 ft 275 kts 197°
2026-05-06 11:40 -33.99545 151.10173 5618 ft 274 kts 197°
2026-05-06 11:41 -34.01400 151.09638 5431 ft 274 kts 197°
2026-05-06 11:41 -34.03253 151.09103 5240 ft 273 kts 197°
2026-05-06 11:41 -34.05076 151.08579 5028 ft 273 kts 196°
2026-05-06 11:41 -34.06923 151.08068 4843 ft 273 kts 192°
2026-05-06 11:42 -34.08818 151.07987 4633 ft 270 kts 175°
2026-05-06 11:42 -34.10612 151.08404 4448 ft 256 kts 170°
2026-05-06 11:42 -34.12320 151.08852 4270 ft 248 kts 170°
2026-05-06 11:42 -34.13991 151.09285 4116 ft 245 kts 170°
2026-05-06 11:43 -34.15660 151.09715 3968 ft 245 kts 168°
2026-05-06 11:43 -34.17184 151.10595 3819 ft 245 kts 138°
2026-05-06 11:43 -34.18100 151.12253 3668 ft 236 kts 104°
2026-05-06 11:44 -34.18175 151.16131 3380 ft 231 kts 83°
2026-05-06 11:44 -34.18072 151.18065 3227 ft 231 kts 83°
2026-05-06 11:44 -34.17959 151.19997 3083 ft 229 kts 79°
2026-05-06 11:44 -34.17390 151.21722 2985 ft 219 kts 45°
2026-05-06 11:45 -34.16178 151.22742 2980 ft 211 kts 14°
2026-05-06 11:45 -34.14775 151.22845 2981 ft 200 kts 347°
2026-05-06 11:45 -34.13417 151.22494 2986 ft 199 kts 345°
2026-05-06 11:45 -34.12069 151.22137 2983 ft 199 kts 345°
2026-05-06 11:46 -34.10733 151.21787 2832 ft 192 kts 346°
2026-05-06 11:46 -34.09454 151.21454 2633 ft 184 kts 346°
2026-05-06 11:46 -34.08218 151.21132 2402 ft 181 kts 346°
2026-05-06 11:46 -34.07006 151.20816 2142 ft 175 kts 346°
2026-05-06 11:47 -34.05884 151.20524 1911 ft 155 kts 347°
2026-05-06 11:47 -34.04891 151.20266 1726 ft 142 kts 348°
2026-05-06 11:47 -34.03963 151.20024 1559 ft 134 kts 347°
2026-05-06 11:47 -34.03059 151.19789 1373 ft 133 kts 348°
2026-05-06 11:48 -34.02162 151.19556 1194 ft 131 kts 348°
2026-05-06 11:48 -34.01276 151.19326 1023 ft 130 kts 347°
2026-05-06 11:48 -34.00392 151.19096 854 ft 131 kts 348°
2026-05-06 11:48 -33.99502 151.18863 663 ft 131 kts 347°
2026-05-06 11:49 -33.98611 151.18630 501 ft 132 kts 347°
2026-05-06 11:49 -33.97709 151.18397 322 ft 133 kts 345°
2026-05-06 11:49 -33.96804 151.18161 152 ft 133 kts 347°
2026-05-06 11:49 -33.95910 151.17936 31 ft 123 kts 348°
2026-05-06 11:50 -33.95237 151.17755 29 ft 75 kts 347°
2026-05-06 11:50 -33.94884 151.17662 29 ft 38 kts 348°
2026-05-06 11:50 -33.94640 151.17648 29 ft 31 kts
2026-05-06 11:50 -33.94505 151.17686 30 ft 11 kts 18°
2026-05-06 11:51 -33.94456 151.17706 30 ft 0 kts 18°
2026-05-06 11:51 -33.94448 151.17709 29 ft 4 kts 18°
2026-05-06 11:51 -33.94425 151.17718 30 ft 7 kts 18°
2026-05-06 11:51 -33.94322 151.17732 30 ft 14 kts 346°
2026-05-06 11:52 -33.94254 151.17711 29 ft 16 kts 345°
2026-05-06 11:52 -33.94106 151.17666 29 ft 18 kts 348°
2026-05-06 11:52 -33.94023 151.17644 28 ft 20 kts 347°
2026-05-06 11:52 -33.93879 151.17605 29 ft 19 kts 348°
2026-05-06 11:53 -33.93760 151.17575 29 ft 18 kts 347°
2026-05-06 11:53 -33.93628 151.17540 29 ft 21 kts 348°
2026-05-06 11:53 -33.93519 151.17511 29 ft 12 kts 348°
2026-05-06 11:53 -33.93459 151.17535 30 ft 11 kts 63°
2026-05-06 11:54 -33.93452 151.17622 30 ft 11 kts 94°
2026-05-06 11:54 -33.93459 151.17680 30 ft 2 kts 99°
2026-05-06 11:54 -33.93461 151.17692 30 ft 2 kts 99°
2026-05-06 11:54 -33.93463 151.17704 30 ft 0 kts 99°